Flag for Canada Weather past 2 weeks in Summerside, Pr.Edward I, Canada

Now
27 °F

Chilly.


Feels Like: 16 °F
Forecast: 16 / 29 °F
Wind: 13 mph from South

Location: Summerside Airport

Current Time: Mar 2, 2015 at 9:45:42 AM

Latest Report: Mar 2, 2015 at 9:00 AM


Visibility: N/A

Pressure: 29.75 "Hg

Humidity: 95%

Dew point: 26 °F

Location of SummersideLocation

Historic Weather in Summerside — Graph

°F

Summerside temperature yesterday

Maximum temperature yesterday: 23 °F (at 4:00 PM)
Minimum temperature yesterday: 0 °F (at 4:00 AM)
Average temperature yesterday: 14 °F

Past Weeks' High & Low Weather Summary

 TemperatureHumidityPressure
High35 °F (Feb 25, 5:00 PM)98% (Feb 19, 9:00 AM)30.61 "Hg (Feb 19, 9:00 AM)
Low-9 °F (Feb 24, 7:00 AM)47% (Feb 17, 3:00 PM)28.68 "Hg (Feb 16, 12:00 AM)
Average13 °F75%29.88 "Hg
* Reported Feb 15 8:00 AM — Mar 2 8:00 AM, Summerside, Weather by CustomWeather, © 2015

Note: Actual official high and low records may vary slightly from our data, if they occured in-between our weather recording intervals... More about our weather records

Advertising

Summerside weather history for previous 24 hours

 ConditionsComfort  
Time TempWeatherWind HumidityBarometerVisibility
8:00 AM
Mon, Mar 2
26 °FChilly.14 mph88%29.79 "HgN/A
7:00 AM26 °FChilly.14 mph88%29.83 "HgN/A
6:00 AM26 °FChilly.14 mph89%29.89 "HgN/A
5:00 AM25 °FChilly.15 mph88%29.93 "HgN/A
4:00 AM26 °FChilly.15 mph88%29.98 "HgN/A
3:00 AM26 °FChilly.15 mph87%30.03 "HgN/A
2:00 AM25 °FChilly.15 mph87%30.09 "HgN/A
1:00 AM25 °FChilly.13 mph89%30.13 "HgN/A
12:00 AM23 °FCold.14 mph80%30.17 "HgN/A
11:00 PM
Sun, Mar 1
21 °FCold.12 mph79%30.22 "HgN/A
10:00 PM22 °FCold.12 mph74%30.27 "HgN/A
9:00 PM16 °FCold.12 mph80%30.30 "HgN/A
8:00 PM20 °FCold.14 mph74%30.34 "HgN/A
7:00 PM20 °FCold.15 mph69%30.35 "HgN/A
6:00 PM19 °FCold.12 mph71%30.37 "HgN/A
5:00 PM22 °FCold.13 mph60%30.39 "HgN/A
4:00 PM23 °FCold.10 mph63%30.43 "HgN/A
3:00 PM22 °FCold.8 mph56%30.47 "HgN/A
2:00 PM20 °FCold.8 mph60%30.49 "HgN/A
1:00 PM21 °FCold.8 mph56%30.53 "HgN/A
12:00 PM18 °FCold.12 mph62%30.56 "HgN/A
11:00 AM18 °FCold.6 mph65%30.57 "HgN/A
10:00 AM14 °FCold.8 mph67%30.59 "HgN/A
9:00 AM9 °FFrigid.7 mph72%30.59 "HgN/A
Weather by CustomWeather, © 2015

See weather overviewHow to use our weather pages